[[{"header":{"parameterUnit":"m.s-1","parameterCategory":1,"la1":30.2991,"la2":30.254,"lo1":-89.0895,"lo2":-89.0444,"dy":0.0017,"dx":0.0017,"nx":28,"ny":28,"refTime":"2023-10-24T09:00:00:Z","depth":0,"parameterNumber":2,"parameterNumberName":"U-component_of_WINDS"},"data":[0,0,0,0,0,0,0,0,0,0,0,0,0,0,0,0,0,0,0,0,0,0,0,0,0,0,0,0,0,0,0,0,0,0,0,0,0,0,0,0,0,0,0,0,0,0,0,0,0,0,0,0,0,0,0,0,0,0,-6.8319,-6.832,0,-6.8472,-6.8474,-6.8475,-6.8438,-6.8436,-6.8433,-6.843,-6.8589,-6.8596,-6.8603,0,0,0,0,0,0,0,0,0,0,0,0,0,-6.7999,-6.8005,-6.8319,-6.832,-6.8322,-6.8472,-6.8474,-6.8476,-6.8439,-6.8435,-6.8432,-6.8428,-6.8587,-6.8595,-6.8603,0,0,0,0,0,0,0,0,0,0,0,0,0,-6.8144,-6.8007,-6.8318,-6.8322,-6.8324,-6.8471,-6.8474,-6.8476,-6.844,-6.8435,-6.8431,-6.8427,-6.8584,-6.8594,-6.8605,-6.8758,0,0,-6.8637,-6.8641,0,0,0,0,0,0,0,0,-6.8136,-6.8156,-6.8319,-6.8322,-6.8324,-6.8431,-6.842,-6.8571,-6.8441,-6.8396,-6.843,-6.8425,-6.854,-6.8554,-6.8593,-6.8766,-6.8773,-6.8638,-6.8644,-6.8648,-6.8651,0,0,0,0,0,0,0,-6.8126,-6.8149,-6.8379,-6.8322,-6.8325,-6.8318,-6.8333,-6.8448,-6.8491,-6.8399,-6.8397,-6.8416,-6.8541,-6.8583,-6.8596,-6.8775,-6.8637,-6.8647,-6.8653,-6.8657,-6.9085,-6.909,0,0,0,0,0,0,-6.8113,-6.8141,-6.8374,-6.8384,-6.8217,-6.8327,-6.8345,-6.8402,-6.849,-6.8499,-6.8419,-6.8413,-6.8567,-6.8584,-6.8602,-6.8788,-6.8648,-6.8658,-6.8664,-6.908,-6.9087,-6.9092,0,0,0,0,0,0,-6.8106,-6.8134,-6.8368,-6.8262,-6.8291,-6.8337,-6.8402,-6.8407,-6.8449,-6.8505,-6.8513,-6.8454,-6.8564,-6.8587,-6.872,-6.8793,-6.8663,-6.8673,-6.9074,-6.9082,-6.9089,-6.9162,0,0,0,0,0,0,-6.8097,-6.8132,-6.8189,-6.8263,-6.8297,-6.8482,-6.8406,-6.8413,-6.8467,-6.846,-6.8539,-6.8548,-6.8562,-6.8705,-6.8731,-6.8805,-6.8681,-6.9068,-6.9078,-6.9087,-6.9153,-6.9171,-6.9186,0,0,0,0,0,-6.8086,-6.8204,-6.8192,-6.8221,-6.8369,-6.8487,-6.8506,-6.8519,-6.8473,-6.8531,-6.8569,-6.8546,-6.8782,-6.8719,-6.8748,-6.8826,-6.9063,-6.9075,-6.9086,-6.9145,-6.9167,-6.9186,0,0,0,0,0,0,-6.8136,-6.8213,-6.8201,-6.8346,-6.841,-6.848,-6.8554,-6.8542,-6.8621,-6.8612,-6.8626,-6.8645,-6.8781,-6.8818,-6.8746,-6.8982,-6.8916,-6.8934,-6.8951,-6.8973,-6.8989,-6.8975,-6.8689,0,0,0,0,0,-6.8165,-6.8252,-6.8315,-6.8437,-6.847,-6.8507,-6.8559,-6.8564,-6.8631,-6.8658,-6.8705,-6.8772,-6.8861,-6.892,-6.9005,-6.916,-6.9177,-6.9229,-6.9246,-6.9259,-6.9273,-6.9359,-6.9383,-6.913,-6.9129,-6.9129,0,0,-6.8223,-6.8276,-6.833,-6.8448,-6.8498,-6.8591,-6.853,-6.8629,-6.8698,-6.8674,-6.8801,-6.8839,-6.8915,-6.906,-6.9127,-6.9095,-6.9348,-6.9274,-6.9284,-6.9291,-6.9373,-6.9397,-6.9418,-6.9137,-6.9136,-6.9135,0,0,-6.8375,-6.8424,-6.8531,-6.8584,-6.8661,-6.8686,-6.8712,-6.8786,-6.8809,-6.8938,-6.8923,-6.9007,-6.916,-6.9215,-6.9264,-6.9444,-6.9426,-6.9472,-6.9557,-6.9641,-6.9661,-6.9678,-6.9742,-6.9765,-6.9487,-6.9487,-6.9487,0,-6.8437,-6.8573,-6.8588,-6.8689,-6.8743,-6.8727,-6.8836,-6.8887,-6.8989,-6.9027,-6.8991,-6.9186,-6.9236,-6.9394,-6.9439,-6.9479,-6.951,-6.946,-6.9657,-6.9675,-6.9691,-6.9752,-6.9776,-6.9492,-6.9491,-6.9491,-6.949,0,-6.8647,-6.8742,-6.882,-6.8918,-6.8981,-6.9087,-6.9119,-6.9181,-6.9184,-6.9213,-6.9347,-6.9408,-6.9506,-6.9545,-6.9547,-6.9705,-6.9683,-6.9653,-6.9586,-6.972,-6.9777,-6.9801,-6.9499,-6.9497,-6.9496,-6.9494,0,0,-6.8829,-6.8938,-6.8965,-6.9011,-6.9098,-6.9173,-6.928,-6.9376,-6.9429,-6.9503,-6.9592,-6.9726,-6.9699,-6.9754,-6.9764,-6.9838,-6.9977,-6.9798,-6.98,-6.9827,-7.0155,-7.0175,-7.0201,-6.9968,-6.9972,-6.9976,-7.0148,0,-6.8987,-6.9172,-6.9191,-6.9358,-6.9447,-6.9436,-6.953,-6.9594,-6.9627,-6.9709,-6.9746,-6.9839,-6.9797,-6.983,-6.9904,-6.9944,-7.0042,-6.9933,-7.0051,-7.0055,-7.0028,-7.0231,-7.0252,-7.0411,-7.017,-7.0174,-7.0177,0,-6.9195,-6.9274,-6.9449,-6.9526,-6.9565,-6.9648,-6.9739,-6.9818,-6.9893,-6.9912,-6.9976,-6.9977,-7.0089,-7.0023,-7.0179,-7.0104,-7.0155,-7.0183,-7.019,-7.0198,-7.0121,-7.0243,-7.0462,-7.0484,-7.0212,-7.021,-7.0207,0,-6.9308,-6.9459,-6.9584,-6.9624,-6.9717,-6.9776,-6.9818,-6.9889,-6.9947,-7.0028,-7.0066,-7.016,-7.0211,-7.0285,-7.0312,-7.0261,-7.0467,-7.0402,-7.0486,-7.0485,-7.0525,-7.0521,-7.0753,-7.0564,-7.0564,-7.0563,-7.0563,0,-6.9481,-6.9588,-6.9636,-6.9712,-6.9834,-6.9857,-6.9977,-7.0016,-7.0081,-7.0166,-7.0165,-7.0245,-7.0278,-7.0366,-7.0389,-7.0514,-7.0538,-7.0557,-7.0561,-7.0555,-7.0552,-7.0585,-7.0574,-7.057,-7.0568,-7.0567,-7.0566,0,-6.9625,-6.9662,-6.9797,-6.9876,-6.9899,-6.9984,-7.0053,-7.0128,-7.0162,-7.027,-7.0297,-7.035,-7.0453,-7.0489,-7.0614,-7.063,-7.0775,-7.0772,-7.0749,-7.0749,-7.0829,-7.082,-7.1087,-7.1123,-7.0913,-7.0915,-7.0917,0,-6.9731,-6.9813,-6.9902,-6.9959,-7.0003,-7.0095,-7.0155,-7.0183,-7.0245,-7.034,-7.0404,-7.0506,-7.0589,-7.0754,-7.0804,-7.0901,-7.0898,-7.0986,-7.0912,-7.0904,-7.0897,-7.089,-7.0899,-7.0997,-7.0999,-7.1001,-7.1003,0,-6.9914,-6.9929,-7.0014,-7.0107,-7.0179,-7.0253,-7.0326,-7.0373,-7.0413,-7.0484,-7.0589,-7.0653,-7.0782,-7.0884,-7.0984,-7.1029,-7.1023,-7.1026,-7.105,-7.1043,-7.1025,-7.1034,-7.0783,-7.1019,-7.1017,-7.1016,-7.1015,-7.1014,-7.0041,-7.0114,-7.0189,-7.0284,-7.0343,-7.0412,-7.0486,-7.0531,-7.0618,-7.0724,-7.0738,-7.0851,-7.0928,-7.1061,-7.1112,-7.1202,-7.1178,-7.1213,-7.1222,-7.1229,-7.1234,-7.1015,-7.1221,-7.1221,-7.122,-7.122,-7.122,0,-7.0222,-7.0271,-7.0359,-7.0461,-7.0538,-7.0527,-7.0609,-7.0673,-7.0772,-7.0845,-7.0927,-7.105,-7.115,-7.1211,-7.1312,-7.1372,-7.1373,-7.1398,-7.1392,-7.1402,-7.1251,-7.1218,-7.1396,-7.1396,-7.1396,-7.1396,-7.1396,-7.1396,-7.0325,-7.0449,-7.0474,-7.0628,-7.0676,-7.0786,-7.0834,-7.0898,-7.0956,-7.1093,-7.1176,-7.1215,-7.1284,-7.1391,-7.1483,-7.1499,-7.1535,-7.1562,-7.1576,-7.1431,-7.1413,-7.1395,-7.1365,-7.1571,-7.1571,-7.172,-7.1721,-7.1722]},{"header":{"parameterUnit":"m.s-1","parameterCategory":1,"la1":30.2991,"la2":30.254,"lo1":-89.0895,"lo2":-89.0444,"dy":0.0017,"dx":0.0017,"nx":28,"ny":28,"refTime":"2023-10-24T09:00:00:Z","depth":0,"parameterNumber":3,"parameterNumberName":"V-component_of_WINDS"},"data":[0,0,0,0,0,0,0,0,0,0,0,0,0,0,0,0,0,0,0,0,0,0,0,0,0,0,0,0,0,0,0,0,0,0,0,0,0,0,0,0,0,0,0,0,0,0,0,0,0,0,0,0,0,0,0,0,0,0,1.8144,1.8144,0,1.8138,1.8138,1.8138,1.81,1.8099,1.8098,1.8097,1.8087,1.8087,1.8088,0,0,0,0,0,0,0,0,0,0,0,0,0,1.8122,1.8123,1.8144,1.8144,1.8144,1.8138,1.8138,1.8138,1.81,1.8099,1.8098,1.8097,1.8087,1.8087,1.8088,0,0,0,0,0,0,0,0,0,0,0,0,0,1.8125,1.8123,1.8144,1.8124,1.8123,1.8138,1.8138,1.8138,1.81,1.8099,1.8097,1.8096,1.8086,1.8087,1.8088,1.812,0,0,1.8091,1.8091,0,0,0,0,0,0,0,0,1.8125,1.8126,1.8127,1.8126,1.8124,1.8118,1.8126,1.8132,1.8101,1.8109,1.8097,1.8096,1.8098,1.8098,1.81,1.812,1.812,1.8091,1.8091,1.8092,1.8092,0,0,0,0,0,0,0,1.8125,1.8126,1.8141,1.8127,1.8125,1.8116,1.8115,1.8127,1.8111,1.8108,1.8105,1.8105,1.8097,1.8099,1.8099,1.8119,1.8091,1.8091,1.8092,1.8092,1.817,1.8171,0,0,0,0,0,0,1.8128,1.8126,1.8142,1.8141,1.8121,1.8117,1.8116,1.8121,1.8111,1.8108,1.8106,1.8103,1.8098,1.8098,1.8099,1.8138,1.8092,1.8092,1.8093,1.8168,1.817,1.8172,0,0,0,0,0,0,1.8127,1.813,1.8142,1.8133,1.8134,1.8119,1.8125,1.8122,1.8124,1.811,1.8106,1.8111,1.8097,1.8097,1.8116,1.8137,1.8093,1.8094,1.8166,1.8169,1.8171,1.8215,0,0,0,0,0,0,1.8127,1.813,1.8142,1.8134,1.8135,1.816,1.8127,1.8123,1.8126,1.8122,1.8113,1.8111,1.8096,1.8115,1.8117,1.8137,1.8094,1.8164,1.8167,1.817,1.8212,1.8219,1.8225,0,0,0,0,0,1.8126,1.8153,1.8142,1.8144,1.8149,1.8161,1.8162,1.8145,1.8128,1.814,1.8132,1.8111,1.8135,1.8118,1.8119,1.814,1.8163,1.8167,1.817,1.8209,1.8218,1.8225,0,0,0,0,0,0,1.8161,1.8151,1.8139,1.8164,1.8164,1.8155,1.8169,1.8154,1.8158,1.8154,1.8133,1.8131,1.8154,1.8149,1.813,1.8173,1.8146,1.815,1.8175,1.8183,1.8189,1.8189,1.8095,0,0,0,0,0,1.8172,1.8183,1.8174,1.8196,1.8197,1.8184,1.8188,1.8176,1.8175,1.8174,1.8166,1.8165,1.8173,1.8177,1.8183,1.8212,1.821,1.8227,1.8234,1.8239,1.8242,1.826,1.8268,1.8183,1.8183,1.8183,0,0,1.8193,1.819,1.8197,1.8203,1.8202,1.8214,1.8184,1.8197,1.8206,1.8175,1.8194,1.8189,1.8186,1.8211,1.8221,1.8207,1.8266,1.8244,1.8248,1.8248,1.8264,1.8272,1.828,1.8186,1.8185,1.8185,0,0,1.8239,1.8237,1.8257,1.8258,1.8257,1.8249,1.8254,1.8248,1.8244,1.8263,1.8242,1.8252,1.8264,1.8264,1.8266,1.8317,1.8299,1.832,1.8353,1.837,1.8377,1.8383,1.8402,1.8409,1.8323,1.8323,1.8323,0,1.8266,1.8284,1.8269,1.8285,1.8289,1.8266,1.8286,1.8287,1.8288,1.8291,1.8276,1.8294,1.829,1.8316,1.8329,1.8331,1.8337,1.8319,1.8377,1.8383,1.8388,1.8407,1.8414,1.8326,1.8326,1.8325,1.8325,0,1.8317,1.8331,1.8347,1.8352,1.8358,1.8376,1.8364,1.8372,1.8361,1.8354,1.8375,1.8371,1.8377,1.8382,1.837,1.8407,1.8399,1.8381,1.8353,1.8399,1.8416,1.8423,1.833,1.8329,1.8328,1.8327,0,0,1.8381,1.8381,1.8387,1.839,1.839,1.84,1.8418,1.8426,1.8434,1.8437,1.8452,1.8466,1.8451,1.8453,1.8441,1.8456,1.85,1.8436,1.8436,1.8449,1.8543,1.8556,1.8565,1.8489,1.849,1.8491,1.8543,0,1.8426,1.8458,1.8448,1.848,1.8493,1.8473,1.849,1.8492,1.8487,1.8498,1.8492,1.8503,1.8481,1.8483,1.8497,1.8491,1.8518,1.8487,1.8502,1.8503,1.8503,1.8573,1.8587,1.8636,1.855,1.8551,1.8552,0,1.8482,1.849,1.8525,1.8526,1.8531,1.8546,1.8554,1.8565,1.8567,1.8563,1.8568,1.8554,1.8573,1.8547,1.8573,1.8553,1.8559,1.8557,1.8559,1.8559,1.853,1.8576,1.8651,1.8659,1.8562,1.8561,1.856,0,1.8526,1.8546,1.857,1.8573,1.8575,1.8586,1.8587,1.8589,1.8596,1.8603,1.8608,1.8616,1.8621,1.8629,1.8618,1.86,1.8646,1.8619,1.8644,1.8644,1.8653,1.8652,1.8731,1.8657,1.8657,1.8657,1.8657,0,1.8577,1.8599,1.859,1.8605,1.863,1.8619,1.8644,1.8642,1.8645,1.8659,1.8642,1.8656,1.8642,1.8654,1.8646,1.867,1.8672,1.8669,1.8667,1.8671,1.8671,1.8674,1.867,1.8659,1.8659,1.8658,1.8658,0,1.863,1.8625,1.865,1.8652,1.8653,1.8671,1.8672,1.8686,1.8682,1.8701,1.8705,1.8698,1.8713,1.8704,1.8717,1.8712,1.8744,1.8737,1.8744,1.8742,1.8768,1.8766,1.885,1.8861,1.878,1.8781,1.8782,0,1.8663,1.868,1.8685,1.8694,1.8698,1.8712,1.8721,1.8711,1.872,1.8727,1.8741,1.8754,1.8765,1.8789,1.8785,1.8797,1.8789,1.8819,1.8791,1.8795,1.8791,1.879,1.8793,1.8824,1.8825,1.8825,1.8826,0,1.8722,1.872,1.8733,1.8746,1.8757,1.8767,1.8774,1.8783,1.8774,1.8785,1.8801,1.881,1.8827,1.8841,1.8851,1.8852,1.8838,1.8836,1.8842,1.8846,1.885,1.8849,1.8759,1.8833,1.8832,1.8832,1.8831,1.8831,1.8766,1.8782,1.8789,1.8805,1.8811,1.882,1.8834,1.8834,1.8848,1.8861,1.8855,1.8874,1.888,1.8893,1.8896,1.8911,1.8899,1.8908,1.8911,1.8913,1.8918,1.8848,1.8913,1.8913,1.8913,1.8912,1.8912,0,1.8825,1.883,1.8845,1.8859,1.8872,1.8861,1.887,1.8881,1.8899,1.8906,1.8918,1.8938,1.8953,1.8953,1.8966,1.8979,1.8973,1.8983,1.8982,1.8982,1.8926,1.892,1.8988,1.8988,1.8988,1.8988,1.8988,1.8987,1.8858,1.8884,1.8884,1.8914,1.8918,1.8939,1.8945,1.8954,1.896,1.8984,1.8997,1.8998,1.9002,1.9017,1.9031,1.903,1.9036,1.9049,1.9046,1.8993,1.8986,1.8979,1.8973,1.905,1.905,1.9101,1.9101,1.9101]}]]